SCP
3 3 4 3 3 4 4 5 7 8 9 8 9 10 9 9 7 6 5 4 4 3 3 2 2 2 2 1 2 2 3 3 3 3 2 1 1 1 1 1 1 1 1
3 3 3 3 4 4 5 5 7 8 9 9 10 10 10 9 8 6 4 4 3 3 2 2 2 2 2 1 1 2 3 3 3 2 2 1 1 1 1 1 1 1 1
3 3 3 3 3 4 5 5 7 8 9 10 10 10 10 9 8 6 4 4 3 3 2 2 2 1 1 2 1 2 2 2 2 2 1 1 1 1 1 1 1 1 1
3 3 2 2 3 3 4 4 6 8 10 11 11 11 10 9 7 6 5 4 3 3 2 1 1 1 1 1 1 1 2 1 1 1 1 1 1 2 1 1 1 1 1
3 3 2 2 2 2 3 4 5 7 9 11 12 12 10 8 7 6 5 4 3 3 2 2 1 1 1 1 1 1 1 1 1 1 1 1 1 1 1 1 1 1 1
3 2 2 2 2 2 3 4 4 5 7 9 10 10 8 7 7 7 6 4 3 3 3 2 2 1 1 1 1 1 1 1 1 1 1 1 1 1 1 1 1 1 1
2 2 2 1 2 2 3 4 4 4 6 7 7 6 5 5 6 6 5 4 3 3 3 2 2 1 1 1 1 1 1 1 1 1 1 1 1 1 1 1 1 1 1
2 2 1 2 2 2 4 4 4 3 4 6 6 5 4 4 5 5 5 4 3 3 2 2 1 1 1 1 1 1 1 1 1 1 0 1 1 1 1 1 1 1 1
2 2 2 2 2 2 3 4 3 3 3 4 5 4 3 3 4 4 4 3 3 2 1 1 1 1 1 1 1 1 1 1 1 1 1 1 0 0 1 1 1 1 1
2 2 2 2 2 3 3 3 3 3 3 4 5 4 3 2 3 3 3 2 2 1 1 1 1 1 1 1 1 1 1 1 1 1 1 1 0 1 1 1 1 1 1
2 2 2 3 3 3 3 3 3 3 3 3 4 3 2 2 2 2 2 2 1 1 1 1 1 1 1 1 1 1 1 1 1 1 1 1 1 1 1 1 1 1 1
2 2 3 3 3 3 2 2 2 2 3 3 3 3 2 2 2 2 2 1 1 1 1 1 1 1 1 1 1 1 1 1 1 1 1 1 1 1 1 1 1 1 1
2 2 3 3 3 2 2 1 1 1 2 3 3 2 2 2 2 2 1 1 1 1 1 1 1 1 1 0 0 1 1 1 1 1 1 1 1 1 1 1 1 2 2
2 2 2 2 2 2 1 1 1 1 1 2 2 2 2 2 1 1 1 1 1 1 1 1 0 0 0 0 0 1 1 1 1 1 1 1 1 1 1 1 1 1 2
2 2 2 2 2 2 1 1 1 1 1 2 2 2 2 1 1 1 1 2 2 1 1 1 0 0 0 0 0 1 1 2 2 2 1 1 1 0 0 0 1 1 1
2 2 2 1 2 2 1 1 1 1 2 1 1 1 1 1 1 1 1 2 2 1 1 1 0 0 0 0 0 1 1 2 2 2 1 1 0 0 0 0 0 0 0
1 1 1 1 1 1 1 1 1 2 2 2 1 1 1 1 1 1 2 2 2 1 1 1 0 0 0 0 0 1 1 2 2 1 1 0 0 0 0 0 0 0 0
1 1 1 1 1 1 1 1 2 2 2 2 1 1 1 1 1 1 2 2 2 1 1 1 1 0 0 0 0 0 1 1 1 1 0 0 0 0 0 0 0 0 0
1 1 1 1 1 1 1 1 2 2 2 1 1 1 1 1 1 1 1 2 2 1 1 1 1 1 0 0 0 0 1 1 1 0 0 0 0 0 0 0 0 0 0
0 1 1 1 1 1 1 1 1 1 1 1 1 1 1 1 1 1 1 1 1 1 1 1 1 1 0 0 0 0 0 0 0 0 0 0 0 0 0 0 0 0 0
0 0 0 1 1 1 1 1 1 1 1 1 1 1 1 1 1 1 1 1 1 1 1 1 1 1 1 0 0 0 0 0 0 0 0 0 0 0 0 0 0 0 0
0 0 0 1 1 1 1 1 0 0 0 1 1 1 1 1 1 1 1 1 1 1 1 1 1 1 1 0 0 0 0 0 0 0 0 0 0 0 0 0 0 0 0
0 0 0 1 1 1 1 0 0 0 0 1 1 1 1 1 1 1 1 1 1 1 1 1 0 0 0 0 0 0 0 0 0 0 0 0 0 0 0 0 0 0 0
0 0 0 1 1 1 0 0 0 0 0 0 1 1 1 1 1 1 1 1 1 1 0 0 0 0 0 0 0 0 0 0 0 0 0 0 0 0 0 0 0 0 0
0 0 0 0 0 0 0 0 0 0 0 0 1 1 1 1 1 1 1 1 0 0 0 0 0 0 0 0 0 0 0 0 0 0 0 0 0 0 0 0 0 0 0
0 0 0 0 0 0 0 0 0 0 0 0 1 1 1 1 1 1 0 0 0 0 0 0 0 0 0 0 0 0 0 0 0 0 0 0 0 0 0 0 0 0 0
Wind_Speed
5 5 6 7 7 8 7 7 7 7 6 5 5 4 4 3 3 2 2 2 1 1 2 2 1 2 1 2 3 4 4 4 4 5 5 5 5 4 4 4 4 4 4
5 5 6 6 7 7 8 8 7 7 7 5 4 3 3 2 2 2 2 2 2 2 2 2 2 2 2 2 3 3 4 3 3 4 5 4 3 3 3 3 4 5 4
5 6 6 6 6 6 7 6 7 7 7 6 5 4 4 3 3 3 3 2 3 2 1 2 2 2 3 2 3 3 4 4 3 3 4 5 4 5 3 3 4 4 5
5 5 6 6 6 6 6 6 6 6 7 7 6 6 4 4 3 2 2 2 3 3 2 2 2 2 2 2 3 3 4 4 4 2 3 4 4 5 4 4 3 4 5
4 5 5 5 5 5 5 5 5 5 6 7 7 6 5 3 2 2 3 3 3 3 2 2 2 2 2 2 3 3 4 3 4 4 4 4 4 6 6 6 5 5 4
4 4 4 4 4 4 4 5 6 5 5 6 6 6 5 4 3 3 3 3 2 2 2 2 2 2 2 2 3 3 3 4 5 5 5 5 5 5 5 6 6 6 4
3 3 3 4 4 4 4 4 5 5 5 5 5 5 5 5 5 4 3 2 2 2 2 2 2 2 2 3 3 3 4 4 5 5 5 5 5 5 5 6 6 7 5
3 3 3 3 4 4 4 4 4 4 5 5 5 4 5 5 3 3 2 2 2 1 2 3 3 3 3 3 3 4 4 4 5 6 5 5 5 5 5 5 6 6 5
2 2 3 3 4 4 4 5 4 4 4 4 5 5 4 4 3 3 3 2 1 2 2 3 3 3 3 4 4 4 5 5 6 6 5 5 5 5 5 5 5 6 6
1 1 2 3 3 3 4 4 4 4 4 4 4 4 4 4 3 3 3 2 2 2 3 3 3 4 4 4 5 5 4 6 6 5 6 6 5 4 5 5 5 6 6
1 2 2 2 2 3 3 4 4 4 3 3 4 4 4 3 4 4 4 3 3 3 4 4 4 4 4 4 5 6 6 7 6 6 6 6 6 5 5 5 5 5 5
2 2 2 2 3 3 3 3 3 3 3 3 3 3 3 3 3 3 3 3 3 3 4 4 4 4 4 5 6 7 6 7 7 7 6 7 5 6 6 5 6 5 5
2 2 2 2 2 2 3 3 3 3 3 2 3 3 3 3 3 3 3 2 3 3 3 3 4 4 5 5 6 6 6 7 6 6 7 7 6 7 6 6 6 5 5
2 2 2 2 2 2 2 3 3 3 3 2 2 2 2 3 3 3 2 3 3 4 3 4 4 5 5 5 6 6 6 6 6 6 7 7 7 6 7 6 6 6 6
2 2 2 1 1 2 2 2 2 2 3 3 3 2 2 3 3 3 3 3 3 4 3 4 4 4 5 4 5 6 7 7 7 7 6 6 6 6 6 6 6 6 5
2 2 1 1 1 1 2 2 2 2 3 3 3 2 2 2 2 3 3 3 3 4 4 4 4 5 4 2 3 6 7 7 7 7 6 6 5 5 7 8 8 8 7
2 2 2 2 2 2 2 2 2 2 3 3 3 2 2 2 3 3 2 3 3 4 4 4 4 5 3 2 3 5 7 7 7 7 6 6 4 4 5 5 8 8 8
2 2 2 2 2 2 2 2 2 3 3 3 3 2 2 3 3 3 3 3 3 4 4 4 4 5 3 1 3 6 7 7 7 6 6 6 6 5 5 6 6 6 5
2 2 2 3 3 3 3 2 3 3 3 2 2 2 2 3 3 3 3 3 3 4 4 4 4 5 3 1 3 6 6 5 6 6 5 5 6 2 3 6 6 6 5
2 2 2 3 3 3 3 3 3 3 3 2 2 1 2 3 3 3 4 4 3 4 4 4 4 4 4 2 3 5 5 5 6 5 4 2 4 3 4 5 6 6 6
2 3 3 3 2 3 3 3 3 3 2 2 2 2 2 3 3 3 3 4 4 4 4 4 4 3 3 2 3 4 4 5 6 6 4 2 1 4 5 6 6 6 7
3 3 2 2 2 3 3 3 2 2 2 2 2 1 2 3 2 2 3 4 4 5 4 3 3 2 2 1 1 3 4 6 6 6 5 3 2 4 5 6 6 7 7
3 3 3 3 2 2 3 2 2 2 2 2 1 1 2 2 3 3 3 4 3 4 4 3 3 3 3 1 2 4 5 6 5 5 5 7 7 7 6 7 8 7 6
2 2 3 3 2 2 2 2 2 2 2 1 1 1 1 2 1 3 3 3 3 3 4 4 3 3 3 3 4 4 3 3 4 4 5 6 8 7 7 5 5 5 4
2 2 2 2 2 2 2 2 2 2 2 1 1 1 1 1 2 2 2 3 3 3 4 4 4 4 4 4 6 6 5 5 5 6 5 4 4 3 3 3 3 3 3
2 2 2 2 2 2 2 2 2 2 1 1 1 1 1 1 2 2 2 1 2 1 2 4 5 4 3 5 6 6 6 6 6 5 4 4 5 5 5 4 4 4 4
Wind_Direction
179 170 175 180 179 177 177 179 177 174 174 175 183 186 190 186 184 182 166 191 209 223 253 279 244 273 290 307 311 304 295 294 306 291 285 267 250 254 260 266 275 269 272
167 161 170 176 181 185 187 187 186 183 187 183 186 190 186 191 188 179 166 196 199 225 237 261 266 279 279 290 306 303 300 303 307 303 302 291 262 227 261 261 262 278 276
173 169 174 180 183 188 194 192 193 190 191 184 176 167 176 189 184 188 187 203 214 211 250 263 287 288 286 308 298 299 295 300 301 307 304 305 315 321 272 280 279 281 281
180 179 181 183 187 193 193 193 193 193 189 187 187 186 197 201 193 203 186 193 199 203 202 232 261 284 295 306 290 300 292 290 297 290 277 286 305 297 299 282 286 288 282
182 185 189 190 188 189 191 189 184 189 192 194 193 195 202 196 184 188 182 202 189 199 196 215 243 258 280 305 314 313 300 298 297 296 289 285 271 264 277 292 300 293 293
184 187 187 187 189 185 183 181 176 182 189 197 197 198 194 191 193 200 195 202 189 192 194 216 237 259 284 283 284 284 282 291 295 292 288 286 285 286 283 287 293 297 300
184 187 189 187 186 185 185 175 173 178 183 188 195 199 197 202 198 202 202 214 213 205 194 225 248 268 275 278 281 274 288 287 287 283 286 288 287 289 286 284 290 295 296
178 187 189 187 187 184 175 173 180 184 185 190 194 197 202 209 197 200 216 221 232 231 219 225 241 259 268 275 279 278 282 283 283 282 285 282 283 285 281 281 287 287 287
167 184 181 183 182 174 172 181 185 189 194 196 190 191 204 218 209 206 219 216 209 224 225 233 246 258 265 276 279 282 285 286 282 285 279 277 280 279 281 277 276 282 290
133 148 156 165 166 166 166 175 184 190 194 190 194 194 197 206 206 211 212 217 219 237 240 243 251 261 268 273 279 284 286 285 286 289 292 286 285 283 280 276 273 270 274
125 137 145 149 146 151 154 168 183 186 189 193 197 206 206 201 208 211 209 211 224 233 242 250 257 266 275 282 282 286 290 286 291 292 289 285 286 283 286 282 274 270 270
132 125 118 123 131 149 160 165 177 184 190 193 191 200 208 208 215 217 215 218 233 243 250 260 272 278 283 285 284 287 291 289 290 294 294 290 285 279 278 280 280 279 275
138 129 131 140 156 165 167 170 181 182 190 187 187 199 208 215 224 224 226 231 242 249 257 264 274 279 283 280 280 284 287 288 291 292 290 288 285 281 281 277 280 279 273
171 160 153 169 175 181 176 181 190 183 188 192 201 209 214 226 231 223 222 234 246 252 260 269 273 277 282 283 286 287 286 287 289 287 284 283 283 282 284 282 281 281 279
201 194 181 171 186 180 178 186 189 181 188 198 210 212 222 233 233 229 232 242 249 257 265 273 275 279 280 292 305 298 292 291 289 286 282 283 285 286 282 288 294 289 284
218 206 181 180 201 191 193 186 186 184 190 206 221 220 230 238 243 244 244 251 261 274 276 276 280 284 293 3 311 290 289 289 289 291 292 287 266 254 243 253 265 276 278
208 196 184 195 201 197 193 199 192 188 195 214 229 232 237 251 264 272 270 266 272 276 276 275 277 284 294 296 282 276 279 281 287 291 293 293 300 288 286 258 239 245 244
193 185 185 190 194 190 194 195 195 193 202 218 228 234 243 259 272 278 283 280 279 281 281 281 285 289 292 283 285 285 268 275 284 288 291 292 293 296 304 292 281 275 258
174 182 192 187 189 192 190 199 203 199 210 223 234 240 251 270 274 279 293 290 285 285 283 282 283 289 295 266 271 286 284 285 289 288 291 291 289 315 289 280 286 286 280
162 174 176 175 180 187 190 196 193 202 211 225 236 243 265 279 282 290 292 293 286 280 283 289 287 291 299 276 264 280 286 296 297 296 287 261 272 289 266 271 283 289 293
159 164 168 171 174 176 181 189 194 205 213 218 220 224 253 267 267 283 289 289 291 294 288 290 288 286 286 263 254 271 289 302 306 309 307 319 215 264 265 266 274 283 293
156 155 154 152 160 165 175 189 201 204 200 205 207 231 271 280 288 290 292 294 296 285 275 276 287 293 277 263 266 261 267 290 298 302 311 328 341 291 278 269 276 280 277
151 154 151 150 153 169 189 190 192 191 187 195 226 270 292 292 298 293 293 290 288 294 309 316 326 335 337 337 216 240 253 258 272 297 307 302 292 284 267 246 253 260 261
145 152 155 154 151 169 182 181 178 174 191 209 235 265 271 286 294 297 306 317 323 324 327 330 337 337 337 344 351 338 308 266 260 283 284 264 259 257 266 270 251 253 270
135 144 154 142 145 159 162 160 160 173 192 237 256 260 277 320 305 308 325 323 344 349 323 329 331 328 331 357 351 324 322 325 333 320 299 300 303 304 298 294 298 292 282
134 144 148 136 130 135 133 135 151 169 196 217 247 285 304 325 313 339 5 130 218 209 227 258 284 310 313 308 309 306 298 294 293 292 299 311 313 313 314 312 310 304 302